Time,TemperatureF,DewpointF,PressureIn,WindDirection,WindDirectionDegrees,WindSpeedMPH,WindSpeedGustMPH,Humidity,HourlyPrecipIn,Conditions,Clouds,dailyrainin,SoftwareType,DateUTC
2013-04-24 00:04:00,57.5,54.0,30.16,SSE,159,3.0,6.0,88,0.00,,,0.00,weatherlink.com 1.10,2013-04-24 04:04:00,
2013-04-24 00:19:00,57.4,54.0,30.16,SSE,160,5.0,8.0,88,0.00,,,0.00,weatherlink.com 1.10,2013-04-24 04:19:00,
2013-04-24 00:34:00,57.3,54.0,30.16,SSE,150,2.0,8.0,88,0.00,,,0.00,weatherlink.com 1.10,2013-04-24 04:34:00,
2013-04-24 00:49:00,57.3,54.0,30.15,SE,145,4.0,8.0,88,0.00,,,0.00,weatherlink.com 1.10,2013-04-24 04:49:00,
2013-04-24 01:04:00,57.1,54.0,30.15,SSE,161,5.0,8.0,88,0.00,,,0.00,weatherlink.com 1.10,2013-04-24 05:04:00,
2013-04-24 01:19:00,57.1,54.0,30.15,SSE,165,6.0,7.0,88,0.00,,,0.00,weatherlink.com 1.10,2013-04-24 05:19:00,
2013-04-24 01:34:00,57.1,54.0,30.14,SSW,192,2.0,7.0,88,0.00,,,0.00,weatherlink.com 1.10,2013-04-24 05:34:00,
2013-04-24 01:49:00,57.0,54.0,30.14,SSW,192,6.0,7.0,89,0.00,,,0.00,weatherlink.com 1.10,2013-04-24 05:49:00,
2013-04-24 02:04:00,56.9,54.0,30.13,SW,214,2.0,7.0,89,0.00,,,0.00,weatherlink.com 1.10,2013-04-24 06:04:00,
2013-04-24 02:19:00,56.9,53.0,30.13,South,178,1.0,6.0,88,0.00,,,0.00,weatherlink.com 1.10,2013-04-24 06:19:00,
2013-04-24 02:34:00,56.9,54.0,30.14,SSW,197,3.0,4.0,89,0.00,,,0.00,weatherlink.com 1.10,2013-04-24 06:34:00,
2013-04-24 02:49:00,57.0,54.0,30.14,SSW,196,3.0,5.0,88,0.00,,,0.00,weatherlink.com 1.10,2013-04-24 06:49:00,
2013-04-24 03:04:00,57.1,54.0,30.14,South,172,2.0,6.0,88,0.00,,,0.00,weatherlink.com 1.10,2013-04-24 07:04:00,
2013-04-24 03:19:00,57.0,54.0,30.14,SSW,202,3.0,4.0,89,0.00,,,0.00,weatherlink.com 1.10,2013-04-24 07:19:00,
2013-04-24 03:34:00,57.2,54.0,30.14,SSW,202,2.0,6.0,89,0.00,,,0.00,weatherlink.com 1.10,2013-04-24 07:34:00,
2013-04-24 03:49:00,57.1,54.0,30.14,South,188,1.0,4.0,89,0.00,,,0.00,weatherlink.com 1.10,2013-04-24 07:49:00,
2013-04-24 04:04:00,57.0,54.0,30.14,SSW,192,2.0,4.0,89,0.00,,,0.00,weatherlink.com 1.10,2013-04-24 08:04:00,
2013-04-24 04:19:00,57.2,54.0,30.14,SSW,196,3.0,5.0,89,0.00,,,0.00,weatherlink.com 1.10,2013-04-24 08:19:00,
2013-04-24 04:34:00,57.2,54.0,30.14,SSW,200,0.0,3.0,89,0.00,,,0.00,weatherlink.com 1.10,2013-04-24 08:34:00,
2013-04-24 04:49:00,57.1,54.0,30.14,SW,214,2.0,3.0,89,0.00,,,0.00,weatherlink.com 1.10,2013-04-24 08:49:00,
2013-04-24 05:04:00,57.0,54.0,30.14,South,186,1.0,3.0,90,0.00,,,0.00,weatherlink.com 1.10,2013-04-24 09:04:00,
2013-04-24 05:19:00,57.1,54.0,30.15,South,187,0.0,3.0,90,0.00,,,0.00,weatherlink.com 1.10,2013-04-24 09:19:00,
2013-04-24 05:34:00,56.0,53.0,30.16,WNW,302,0.0,1.0,89,0.00,,,0.00,weatherlink.com 1.10,2013-04-24 09:34:00,
2013-04-24 05:49:00,53.1,51.0,30.16,NNW,331,2.0,3.0,91,0.00,,,0.00,weatherlink.com 1.10,2013-04-24 09:49:00,
2013-04-24 06:04:00,51.5,49.0,30.17,NNW,331,3.0,4.0,92,0.00,,,0.00,weatherlink.com 1.10,2013-04-24 10:04:00,
2013-04-24 06:19:00,51.3,49.0,30.17,North,355,0.0,3.0,93,0.00,,,0.00,weatherlink.com 1.10,2013-04-24 10:19:00,
2013-04-24 06:34:00,51.5,50.0,30.18,North,355,0.0,1.0,94,0.00,,,0.00,weatherlink.com 1.10,2013-04-24 10:34:00,
2013-04-24 06:49:00,51.9,50.0,30.18,North,355,0.0,0.0,94,0.00,,,0.00,weatherlink.com 1.10,2013-04-24 10:49:00,
2013-04-24 07:04:00,52.2,51.0,30.18,SSW,213,0.0,0.0,94,0.00,,,0.00,weatherlink.com 1.10,2013-04-24 11:04:00,
2013-04-24 07:19:00,53.1,52.0,30.18,SSW,213,0.0,0.0,95,0.00,,,0.00,weatherlink.com 1.10,2013-04-24 11:19:00,
2013-04-24 07:34:00,54.9,54.0,30.18,SSW,213,0.0,0.0,96,0.00,,,0.00,weatherlink.com 1.10,2013-04-24 11:34:00,
2013-04-24 07:49:00,56.8,56.0,30.19,SSW,213,0.0,0.0,96,0.00,,,0.00,weatherlink.com 1.10,2013-04-24 11:49:00,
2013-04-24 08:04:00,57.3,56.0,30.19,SSW,204,0.0,0.0,94,0.00,,,0.00,weatherlink.com 1.10,2013-04-24 12:04:00,
2013-04-24 08:19:00,57.5,56.0,30.19,SSE,161,2.0,3.0,93,0.00,,,0.00,weatherlink.com 1.10,2013-04-24 12:19:00,
2013-04-24 08:34:00,57.8,56.0,30.19,SSE,157,3.0,4.0,93,0.00,,,0.00,weatherlink.com 1.10,2013-04-24 12:34:00,
2013-04-24 08:49:00,58.2,56.0,30.19,SE,137,2.0,5.0,92,0.00,,,0.00,weatherlink.com 1.10,2013-04-24 12:49:00,
2013-04-24 09:05:00,58.6,56.0,30.19,SSE,167,2.0,5.0,91,0.00,,,0.00,weatherlink.com 1.10,2013-04-24 13:05:00,
2013-04-24 09:20:00,59.0,56.0,30.19,SSE,150,3.0,4.0,91,0.00,,,0.00,weatherlink.com 1.10,2013-04-24 13:20:00,
2013-04-24 09:35:00,59.4,57.0,30.19,SE,144,1.0,5.0,90,0.00,,,0.00,weatherlink.com 1.10,2013-04-24 13:35:00,
2013-04-24 09:50:00,59.9,57.0,30.19,SSE,150,2.0,5.0,90,0.00,,,0.00,weatherlink.com 1.10,2013-04-24 13:50:00,
2013-04-24 10:05:00,60.5,57.0,30.19,SSE,148,2.0,5.0,88,0.00,,,0.00,weatherlink.com 1.10,2013-04-24 14:05:00,
2013-04-24 10:20:00,61.8,58.0,30.18,SSE,153,4.0,7.0,87,0.00,,,0.00,weatherlink.com 1.10,2013-04-24 14:20:00,
2013-04-24 10:35:00,62.3,58.0,30.18,SSE,150,3.0,8.0,86,0.00,,,0.00,weatherlink.com 1.10,2013-04-24 14:35:00,
2013-04-24 10:50:00,62.0,58.0,30.17,SSE,152,5.0,8.0,87,0.00,,,0.00,weatherlink.com 1.10,2013-04-24 14:50:00,
2013-04-24 11:05:00,63.6,59.0,30.18,SSE,167,1.0,6.0,85,0.00,,,0.00,weatherlink.com 1.10,2013-04-24 15:05:00,
2013-04-24 11:20:00,64.6,59.0,30.18,South,177,1.0,5.0,83,0.00,,,0.00,weatherlink.com 1.10,2013-04-24 15:20:00,
2013-04-24 11:35:00,64.4,59.0,30.17,SSW,196,4.0,7.0,83,0.00,,,0.00,weatherlink.com 1.10,2013-04-24 15:35:00,
2013-04-24 11:50:00,64.5,59.0,30.17,SSW,200,7.0,8.0,83,0.00,,,0.00,weatherlink.com 1.10,2013-04-24 15:50:00,
2013-04-24 12:05:00,63.6,59.0,30.16,SSW,202,3.0,7.0,84,0.00,,,0.00,weatherlink.com 1.10,2013-04-24 16:05:00,
2013-04-24 12:20:00,63.4,59.0,30.16,SSW,196,3.0,8.0,86,0.00,,,0.00,weatherlink.com 1.10,2013-04-24 16:20:00,
2013-04-24 12:35:00,63.4,59.0,30.15,SSW,210,5.0,7.0,85,0.00,,,0.00,weatherlink.com 1.10,2013-04-24 16:35:00,
2013-04-24 12:50:00,63.4,59.0,30.14,SSW,205,5.0,9.0,86,0.00,,,0.00,weatherlink.com 1.10,2013-04-24 16:50:00,
2013-04-24 13:05:00,63.6,59.0,30.14,South,188,5.0,8.0,85,0.00,,,0.00,weatherlink.com 1.10,2013-04-24 17:05:00,
2013-04-24 13:20:00,63.5,59.0,30.14,SW,218,8.0,9.0,86,0.00,,,0.00,weatherlink.com 1.10,2013-04-24 17:20:00,
2013-04-24 13:35:00,63.6,59.0,30.13,SSW,206,4.0,9.0,86,0.00,,,0.00,weatherlink.com 1.10,2013-04-24 17:35:00,
2013-04-24 13:50:00,63.8,60.0,30.13,SW,219,5.0,11.0,86,0.00,,,0.00,weatherlink.com 1.10,2013-04-24 17:50:00,
2013-04-24 14:05:00,63.8,60.0,30.13,SSW,193,5.0,9.0,86,0.00,,,0.00,weatherlink.com 1.10,2013-04-24 18:05:00,
2013-04-24 14:20:00,64.2,60.0,30.12,South,190,7.0,10.0,87,0.00,,,0.00,weatherlink.com 1.10,2013-04-24 18:20:00,
2013-04-24 14:35:00,65.4,61.0,30.12,WSW,250,7.0,11.0,85,0.00,,,0.00,weatherlink.com 1.10,2013-04-24 18:35:00,
2013-04-24 14:50:00,65.8,61.0,30.12,SW,220,3.0,10.0,83,0.00,,,0.00,weatherlink.com 1.10,2013-04-24 18:50:00,
2013-04-24 15:05:00,66.4,61.0,30.11,South,185,5.0,9.0,82,0.00,,,0.00,weatherlink.com 1.10,2013-04-24 19:05:00,
2013-04-24 15:20:00,66.2,61.0,30.11,SSW,193,6.0,12.0,82,0.00,,,0.00,weatherlink.com 1.10,2013-04-24 19:20:00,
2013-04-24 15:35:00,66.3,61.0,30.10,WSW,239,9.0,13.0,83,0.00,,,0.00,weatherlink.com 1.10,2013-04-24 19:35:00,
2013-04-24 15:50:00,65.5,61.0,30.10,SW,219,4.0,16.0,85,0.00,,,0.00,weatherlink.com 1.10,2013-04-24 19:50:00,
2013-04-24 16:05:00,65.9,61.0,30.10,WSW,240,8.0,13.0,85,0.00,,,0.00,weatherlink.com 1.10,2013-04-24 20:05:00,
2013-04-24 16:20:00,65.4,61.0,30.09,WSW,243,12.0,17.0,86,0.00,,,0.00,weatherlink.com 1.10,2013-04-24 20:20:00,
2013-04-24 16:35:00,65.5,61.0,30.09,SSW,209,2.0,16.0,86,0.00,,,0.00,weatherlink.com 1.10,2013-04-24 20:35:00,
2013-04-24 16:50:00,66.2,62.0,30.09,SW,215,3.0,11.0,85,0.00,,,0.00,weatherlink.com 1.10,2013-04-24 20:50:00,
2013-04-24 17:05:00,66.2,62.0,30.08,SW,228,6.0,14.0,85,0.00,,,0.00,weatherlink.com 1.10,2013-04-24 21:05:00,
2013-04-24 17:20:00,65.9,61.0,30.08,SW,220,4.0,16.0,85,0.00,,,0.00,weatherlink.com 1.10,2013-04-24 21:20:00,
2013-04-24 17:35:00,65.4,62.0,30.08,SW,236,14.0,20.0,87,0.00,,,0.00,weatherlink.com 1.10,2013-04-24 21:35:00,
2013-04-24 17:50:00,65.1,62.0,30.08,SSW,208,12.0,20.0,88,0.00,,,0.00,weatherlink.com 1.10,2013-04-24 21:50:00,
2013-04-24 18:05:00,64.9,61.0,30.07,WSW,242,14.0,22.0,88,0.00,,,0.00,weatherlink.com 1.10,2013-04-24 22:05:00,
2013-04-24 18:20:00,64.5,61.0,30.07,WSW,238,12.0,22.0,89,0.00,,,0.00,weatherlink.com 1.10,2013-04-24 22:20:00,
2013-04-24 18:36:00,64.5,61.0,30.07,WSW,251,12.0,22.0,89,0.00,,,0.00,weatherlink.com 1.10,2013-04-24 22:36:00,
2013-04-24 18:50:00,64.2,61.0,30.06,SW,229,14.0,21.0,90,0.00,,,0.00,weatherlink.com 1.10,2013-04-24 22:50:00,
2013-04-24 19:20:00,63.9,61.0,30.06,WSW,245,3.0,14.0,91,0.00,,,0.00,weatherlink.com 1.10,2013-04-24 23:20:00,
2013-04-24 19:35:00,63.8,62.0,30.06,WSW,250,2.0,13.0,92,0.00,,,0.00,weatherlink.com 1.10,2013-04-24 23:35:00,
2013-04-24 19:50:00,63.8,62.0,30.06,SW,220,12.0,15.0,92,0.00,,,0.00,weatherlink.com 1.10,2013-04-24 23:50:00,
2013-04-24 20:06:00,63.9,62.0,30.06,WSW,256,6.0,14.0,92,0.00,,,0.00,weatherlink.com 1.10,2013-04-25 00:06:00,
2013-04-24 20:21:00,64.0,62.0,30.06,WSW,248,10.0,18.0,92,0.00,,,0.00,weatherlink.com 1.10,2013-04-25 00:21:00,
2013-04-24 20:36:00,64.6,62.0,30.06,SW,218,15.0,22.0,92,0.00,,,0.00,weatherlink.com 1.10,2013-04-25 00:36:00,
2013-04-24 20:51:00,64.4,62.0,30.06,SW,234,9.0,19.0,92,0.00,,,0.00,weatherlink.com 1.10,2013-04-25 00:51:00,
2013-04-24 21:06:00,64.3,62.0,30.06,SW,229,8.0,19.0,92,0.00,,,0.00,weatherlink.com 1.10,2013-04-25 01:06:00,
2013-04-24 21:21:00,64.6,62.0,30.07,SW,225,10.0,21.0,92,0.00,,,0.00,weatherlink.com 1.10,2013-04-25 01:21:00,
2013-04-24 21:36:00,64.6,62.0,30.08,SW,220,7.0,13.0,92,0.00,,,0.00,weatherlink.com 1.10,2013-04-25 01:36:00,
2013-04-24 21:51:00,64.5,62.0,30.09,WSW,238,6.0,12.0,92,0.00,,,0.00,weatherlink.com 1.10,2013-04-25 01:51:00,
2013-04-24 22:06:00,64.2,62.0,30.10,WSW,257,6.0,14.0,91,0.00,,,0.00,weatherlink.com 1.10,2013-04-25 02:06:00,
2013-04-24 22:21:00,64.1,62.0,30.10,WSW,248,6.0,12.0,91,0.00,,,0.00,weatherlink.com 1.10,2013-04-25 02:21:00,
2013-04-24 22:36:00,63.8,61.0,30.10,West,272,9.0,11.0,91,0.00,,,0.00,weatherlink.com 1.10,2013-04-25 02:36:00,
2013-04-24 22:51:00,63.3,61.0,30.09,West,259,7.0,10.0,92,0.00,,,0.00,weatherlink.com 1.10,2013-04-25 02:51:00,
2013-04-24 23:21:00,62.8,61.0,30.08,West,261,3.0,10.0,93,0.00,,,0.00,weatherlink.com 1.10,2013-04-25 03:21:00,
2013-04-24 23:36:00,63.2,61.0,30.08,West,278,5.0,12.0,93,0.00,,,0.00,weatherlink.com 1.10,2013-04-25 03:36:00,
2013-04-24 23:51:00,63.3,61.0,30.09,WSW,256,5.0,11.0,93,0.00,,,0.00,weatherlink.com 1.10,2013-04-25 03:51:00,